Regional Weather Roundup
Issued by NWS Sioux Falls, SD

Home | Current Version | Previous Version | Text Only | Print | Product List | Glossary Off
Versions: 1 2 3 4 5 6 7 8 9 10 11 12 13 14 15 16 17 18 19 20 21 22 23 24 25 26 27 28 29 30 31 32 33 34 35 36 37 38 39 40 41 42 43 44 45 46 47 48 49 50

000
ASUS43 KFSD 262002
RWRFSD

WEATHER ROUNDUP FOR SE SOUTH DAKOTA/SW MINNESOTA/NW IOWA
NATIONAL WEATHER SERVICE SIOUX FALLS SD
300 PM CDT MON SEP 26 2016

NOTE: "FAIR" INDICATES FEW OR NO CLOUDS BELOW 12,000 FEET WITH NO
SIGNIFICANT WEATHER AND OR OBSTRUCTIONS TO VISIBILITY.


SDZ038>040-050-052>070-262100-
SOUTHEAST SOUTH DAKOTA

CITY           SKY/WX    TMP DP  RH WIND       PRES   REMARKS
CHAMBERLAIN    SUNNY     74  38  27 NW20      30.14F
HURON          SUNNY     73  32  22 NW22G33   30.07F
MADISON        FAIR      66  34  30 NW28G36   30.08F
MITCHELL       MOSUNNY   74  35  24 NW14G28   30.10F
SIOUX FALLS    MOSUNNY   70  39  32 W18G32    30.08F
WINNER         FAIR      75  39  27 NW18G24   30.17F
YANKTON        SUNNY     72  41  33 NW22G28   30.09F
$$

MNZ071-072-080-081-089-090-097-098-262100-
SOUTHWEST MINNESOTA

CITY           SKY/WX    TMP DP  RH WIND       PRES   REMARKS
FAIRMONT       SUNNY     67  34  29 W23G30    30.01F
JACKSON        SUNNY     68  27  21 W21G31    30.03F
LUVERNE        SUNNY     68  28  22 NW23G31   30.07F
MARSHALL       SUNNY     67  34  29 NW29      30.00F
MONTEVIDEO     SUNNY     68  34  28 N21G32    30.00F
PIPESTONE      SUNNY     66  21  18 W23G30    30.06F
REDWOOD FALLS  SUNNY     68  32  26 NW23G40   29.98F
TRACY          SUNNY     68  34  28 NW22G32   30.03F
WINDOM         SUNNY     66  30  26 W23G29    30.02F
WORTHINGTON    SUNNY     66  33  29 NW24G35   30.05F
$$

IAZ001>003-012>014-020>022-031-032-NEZ013-014-SDZ071-262100-
NORTHWEST IOWA

CITY           SKY/WX    TMP DP  RH WIND       PRES   REMARKS
CHEROKEE       SUNNY     70  38  32 W16G28    30.09F
DENISON        MOSUNNY   72  41  33 NW17G29   30.09F
ESTHERVILLE    SUNNY     68  31  25 NW25G32   30.03F
LE MARS        SUNNY     72  39  30 NW21G29   30.11F
ORANGE CITY    SUNNY     70  39  32 W25G32    30.09F
SHELDON        SUNNY     70  36  28 NW22G29   30.06F
SIOUX CITY     MOSUNNY   73  44  35 NW21      30.10F
SPENCER        SUNNY     70  36  28 W26G39    30.06F
STORM LAKE     SUNNY     70  36  28 W18G33    30.08F
$$

ABBREVIATIONS USED IN REMARKS
   TC - TEMPERATURE IN CELSIUS
  WCI - WIND CHILL INDEX
   HX - HEAT INDEX
  VSB - VISIBILITY





USA.gov is the U.S. government's official web portal to all federal, state and local government web resources and services.